Погода в Поречье

Россия / Псковская область     56°05′44″N   30°28′42″E
темп.,
°C
ветер,
м/с
пор.,
м/с
влажн.,
%
обл.,
%
осадки,
мм/ч
давл.,
гПа
погр.,
м
28 ноября, вс
вс2800:00+2юз3898100 1.1 993684
03:00+1зюз4897100 1.3 995779
06:00+1юз4995100 0.3 997667
09:00+1юз4997100 0.4 999730
12:00+2юз499098 0.1 1002824
15:00+2юз3786100 0.1 1003595
18:00+1ююз2595100 0.0 1004188
21:00−1юв1198100 0.1 100517
29 ноября, пн
пн2900:000в2496100 0.0 1005118
03:00−1св2798100 0.3 1003262
06:000всв41097100 1.7 1001406
09:00+1всв4998100 1.9 999360
12:00+1в3899100 0.1 997308
15:00+3вюв3999100 0.6 994330
18:00+4юв41299100 0.1 991436
21:00+5вюв41298100 2.5 988481
30 ноября, вт
вт3000:00+4вюв3999100 2.6 984359
03:00+3в2599100 3.8 981226
06:00+3св01100100 1.3 97950
09:00+3з3899100 2.3 978429
12:00−2зсз51294100 0.6 980555
15:00−2зсз61293100 1.5 981847
18:00−4зсз61392100 1.1 984862
21:00−4зсз61391100 2.2 9861003
1 декабря, ср
ср100:00−3з51185100 0.4 9871124
03:00−4з51084100 0.5 9881007
06:00−4з4984100 0.1 990948
09:00−5зсз4108386 0.1 992734
12:00−6зсз498071 0.0 994633
15:00−5зсз497939 0.0 995671
18:00−6з38855 0.0 996414
21:00−7зюз249055 0.0 996124
2 декабря, чт
чт200:00−6ю1390100 0.0 996104
03:00−5юв4986100 0.0 994390
06:00−4ююв51494100 0.8 990649
09:00−1ю51497100 2.4 987802
12:00+3ююз61498100 0.6 9871012
15:00+3юз6158799 0.6 9871142
18:00+2юз61697100 0.3 9891399
21:00+1юз7167786 0.4 9901350